Weather History for Blythe, CA

Change the Weather History Date:

Friday, June 21, 2013

  Actual Average Record
Temperature  
Mean Temperature 90 °F -  
Max Temperature 106 °F 103 °F 116 °F (2008)
Min Temperature 75 °F 72 °F 64 °F (1975)
Cooling Degree Days 24    
Growing Degree Days 40 (Base 50)    
Moisture  
Dew Point 34 °F    
Average Humidity 15    
Maximum Humidity 25    
Minimum Humidity 5    
Precipitation  
Precipitation 0.00 in - - ()
Sea Level Pressure  
Sea Level Pressure 29.68 in    
Wind  
Wind Speed 8 mph (SSW)    
Max Wind Speed 18 mph    
Max Gust Speed 25 mph    
Visibility 10 miles    
Events      
Averages and records for this station are not official NWS values.
T = Trace of Precipitation, MM = Missing Value Source: NWS Daily Summary

Daily Weather History Graph

Daily Weather History Graph

Search for Another Location

Airport:

Trip Planner

Search our weather history database for the weather conditions in past years. The results will help you decide how hot, cold, wet, or windy it might be!

Date:

Astronomy

Jun. 21, 2013 Rise Set
Actual Time 5:29 AM PDT 7:52 PM PDT
Civil Twilight 5:00 AM PDT 8:21 PM PDT
Nautical Twilight 4:24 AM PDT 8:57 PM PDT
Astronomical Twilight 3:45 AM PDT 9:36 PM PDT
Moon 6:10 PM PDT (6/21) 3:44 AM PDT (6/21)
Length of Visible Light 15h 21m
Length of Day
14h 23m
Waxing Gibbous, 96% of the Moon is Illuminated
Jun 21
Waxing Gibbous
Jun 23
Full
Jun 29
Last Quarter
Jul 8
New
Jul 15
First Quarter

Hourly Weather History & Observations

Time (PDT) Temp. Dew Point Humidity Pressure Visibility Wind Dir Wind Speed Gust Speed Precip Events Conditions
12:52 AM 84.0 °F 37.0 °F 19% 29.66 in 10.0 mi South 10.4 mph - N/A   Clear
1:52 AM 81.0 °F 37.9 °F 21% 29.66 in 10.0 mi SSW 5.8 mph - N/A   Clear
2:52 AM 77.0 °F 39.0 °F 25% 29.67 in 10.0 mi SE 3.5 mph - N/A   Clear
3:52 AM 80.1 °F 37.9 °F 22% 29.67 in 10.0 mi WNW 3.5 mph - N/A   Clear
4:52 AM 77.0 °F 37.0 °F 24% 29.68 in 10.0 mi Calm Calm - N/A   Clear
5:52 AM 75.0 °F 35.1 °F 23% 29.70 in 10.0 mi NW 3.5 mph - N/A   Clear
6:52 AM 80.1 °F 36.0 °F 20% 29.72 in 10.0 mi Calm Calm - N/A   Clear
7:52 AM 84.0 °F 36.0 °F 18% 29.74 in 10.0 mi Calm Calm - N/A   Clear
8:52 AM 86.0 °F 44.1 °F 23% 29.75 in 10.0 mi SW 3.5 mph - N/A   Clear
9:52 AM 90.0 °F 43.0 °F 19% 29.75 in 10.0 mi SSE 8.1 mph - N/A   Clear
10:52 AM 93.9 °F 39.0 °F 15% 29.76 in 10.0 mi SSE 9.2 mph - N/A   Clear
11:52 AM 96.1 °F 37.9 °F 13% 29.75 in 10.0 mi SSE 9.2 mph - N/A   Clear
12:52 PM 99.0 °F 33.1 °F 10% 29.73 in 10.0 mi SE 15.0 mph - N/A   Clear
1:52 PM 100.9 °F 28.9 °F 8% 29.71 in 10.0 mi SSE 16.1 mph 20.7 mph N/A   Clear
2:52 PM 102.9 °F 28.0 °F 7% 29.68 in 10.0 mi SSE 16.1 mph - N/A   Clear
3:52 PM 102.9 °F 35.1 °F 10% 29.66 in 10.0 mi SSE 11.5 mph - N/A   Clear
4:52 PM 104.0 °F 21.0 °F 5% 29.64 in 10.0 mi West 11.5 mph - N/A   Clear
5:52 PM 104.0 °F 19.0 °F 5% 29.62 in 10.0 mi WSW 15.0 mph 25.3 mph N/A   Clear
6:52 PM 102.0 °F 21.9 °F 6% 29.62 in 10.0 mi SW 18.4 mph - N/A   Clear
7:52 PM 99.0 °F 26.1 °F 8% 29.62 in 10.0 mi SW 11.5 mph - N/A   Clear
8:52 PM 95.0 °F 28.9 °F 10% 29.63 in 10.0 mi SW 6.9 mph - N/A   Clear
9:52 PM 91.9 °F 30.9 °F 11% 29.64 in 10.0 mi WSW 6.9 mph - N/A   Clear
10:52 PM 91.0 °F 34.0 °F 13% 29.65 in 10.0 mi WSW 8.1 mph - N/A   Clear
11:52 PM 84.9 °F 41.0 °F 21% 29.65 in 10.0 mi South 15.0 mph - N/A   Clear